Weather in Ust-Tara

Russia / Omsk Oblast     56°40′30″N   74°39′11″E
temp.,
°C
wind,
m/s
gust,
m/s
humid.,
%
clouds,
%
prec.,
mm/h
press.,
hPa
HPBL,
m
15 may, sat
sat1500:00+13sw4126299 0.0 1021189
03:00+13wsw3870100 0.1 1020139
06:00+12s488685 2.3 1019172
09:00+19wsw465417 0.6 1018368
12:00+26w473840 0.7 10171019
15:00+29w693076 0.0 10153076
18:00+17wsw101485100 3.5 1016479
21:00+17ssw2268100 4.1 101411
16 may, sun
sun1600:00+15w3884100 4.1 1015118
03:00+14nw3385100 0.6 101438
06:00+14sw378790 0.7 1012131
09:00+19nw4768100 0.0 1012495
12:00+23wnw61054100 0.0 10121479
15:00+21nw696078 0.3 1013975
18:00+21n69615 0.6 10141481
21:00+16nne36809 0.0 101697
17 may, mon
mon1700:00+13e34901 0.0 101774
03:00+12sse23955 0.0 101844
06:00+12s36945 0.0 1018164
09:00+19ssw58685 0.0 1016551
12:00+25wsw69486 0.0 10141155
15:00+29w6113148 0.0 10123644
18:00+25w3444100 0.0 1011109
21:00+21w225275 0.0 101015
18 may, tue
tue1800:00+15n288473 0.4 1012227
03:00+13wsw388570 0.0 1010156
06:00+14wnw412845 0.0 1011481
09:00+18nw5766100 0.0 1011689
12:00+22nw464781 0.0 10101302
15:00+23wnw474715 0.0 10091783
18:00+20nw81258100 0.2 1009561
21:00+14nw248936 1.5 1010144
19 may, wed
wed1900:00+13wnw3695100 2.5 1009151
03:00+13ne5994100 1.5 1010547
06:00+11nne61094100 2.1 1011654
09:00+10nne61091100 0.1 1014721
12:00+13nne796281 0.2 10161639
15:00+16n694270 0.0 10162303
18:00+15n79455 0.0 10181997
21:00+10n4104926 0.0 1021301